380  
ASUS42 KRAH 091910  
RWRRAH  
NORTH CAROLINA WEATHER ROUNDUP  
NATIONAL WEATHER SERVICE RALEIGH NC  
300 PM EDT TUE AUG 09 2022  
 
NOTE: "FAIR" INDICATES FEW OR NO CLOUDS BELOW 12,000 FEET WITH NO  
SIGNIFICANT WEATHER AND/OR S TO VISIBILITY
.  
 
NCZ001-053-055-056-065-067-092000-  
WESTERN NORTH CAROLINA  
 
CITY SKY/WX TMP DP RH WIND PRES REMARKS
 
ASHEVILLE PTSUNNY 80 67 64 SW12 30.18F THUNDER  
JEFFERSON MOSUNNY 77 68 73 E5 30.24S  
HICKORY MOSUNNY 88 72 58 S8 30.11F  
WILKESBORO CLOUDY 86 70 58 N8 30.17S  
RUTHERFORDTON PTSUNNY 88 70 55 SW3 30.12F  
MOUNT AIRY PTSUNNY 81 70 68 NW14G23 30.15R  
BOONE TSTM 71 64 79 S9 30.25S  

 
 
NCZ021-022-025-041-071-084-088-092000-  
CENTRAL NORTH CAROLINA  
 
CITY SKY/WX TMP DP RH WIND PRES REMARKS
 
CHARLOTTE MOSUNNY 90 71 53 VRB7 30.10F HX 96  
GREENSBORO PTSUNNY 90 70 51 SW6 30.08F HX 95  
WINSTON-SALEM MOSUNNY 90 69 50 SW8 30.09F  
RALEIGH-DURHAM MOSUNNY 92 74 55 W13 30.06F HX 101  
FORT BRAGG MOSUNNY 94 70 44 SW12G17 30.04F HX 100  
FAYETTEVILLE MOSUNNY 95 70 44 SW10G17 30.06F HX 101  
BURLINGTON MOSUNNY 89 68 49 S6 30.07F  
ROXBORO PTSUNNY 88 72 58 SW3 30.09F  
HENDERSON MOSUNNY 89 70 53 SW6 30.06F  
LOUISBURG MOSUNNY 91 72 52 SW7G16 30.07F HX 98  
LAURINBURG MOSUNNY 97 70 41 SW12 30.09F HX 103  

 
 
NCZ011-015-027-028-043-044-047-080-103-092000-  
NORTHEASTERN NORTH CAROLINA  
 
CITY SKY/WX TMP DP RH WIND PRES REMARKS
 
ROCKY MT-WILSO PTSUNNY 94 71 47 SW10G20 30.05F HX 101  
GREENVILLE PTSUNNY 95 72 46 SW10 30.05F HX 103  
WASHINGTON MOSUNNY 94 72 49 SW12 30.06F HX 101  
ELIZABETH CITY MOSUNNY 92 75 57 S15G22 30.04F HX 103  
MANTEO PTSUNNY 90 73 56 SW13 30.06F HX 98  
CAPE HATTERAS MOSUNNY 87 77 72 SW12G18 30.10F HX 99  

 
 
NCZ078-087-090-091-093-098-101-092000-  
SOUTHEASTERN NORTH CAROLINA  
 
CITY SKY/WX TMP DP RH WIND PRES REMARKS
 
GOLDSBORO PTSUNNY 94 66 39 S13G18 30.04F HX 97  
KINSTON MOSUNNY 95 72 46 S12G18 30.07F HX 103  
KENANSVILLE CLOUDY 91 72 52 SW7 30.08F HX 98  
NEW BERN MOSUNNY 92 74 55 S8 30.08F HX 101  
CHERRY POINT NOT AVBL  
BEAUFORT MOSUNNY 88 76 67 SW20 30.10F HX 99  
JACKSONVILLE NOT AVBL  
WILMINGTON MOSUNNY 94 72 48 SW16G23 30.09F HX 102  

 
 
 
 
CLICK HERE TO GO TO PREVIOUS BULLETINS.

The Nexlab NC Page Main Text Page